QZS-4 (QZSS/PRN 185)

Last updated on Oct. 27, 2021, 12:03 a.m. UTC

1 42965U 17062A   21298.52117328 -.00000319  00000-0  00000-0 0  9997
2 42965  40.8113   5.1475 0749653 270.1900  85.8035  1.00270420 14819
UTC
Height (km)
Latitude
Longitude
Inclination
Orbital Period
UTC large
Height (km)
Speed (km/s)
/
Latitude / Longitude
Inclination (degrees)
Orbital Period (minutes)
Azimuth
Elevation
Range (km)
Doppler Factor
iOS Compass Heading
iOS Angle